Find Local Weather

World > North America > United States > Kentucky

Brandenburg, Kentucky Regional Weather

Lat: 38.00N, Lon: 86.18W
Wx Zone: KYZ025
Feedback
Expires:201810170500;;303357
ASUS43 KLMK 170410
RWRKY 
KENTUCKY REGIONAL WEATHER ROUNDUP
NATIONAL WEATHER SERVICE LOUISVILLE KY
1200 AM EDT WED OCT 17 2018

NOTE "FAIR" INDICATES FEW OR NO CLOUDS BELOW 12,000 FEET
WITH NO SIGNIFICANT WEATHER AND/OR OBSTRUCTIONS TO VISIBILITY.


KYZ024-025-028>034-038-045-046-053-170500-
NORTH CENTRAL KENTUCKY
  
CITY           SKY/WX    TMP DP  RH WIND       PRES   REMARKS
LOUISVILLE/SDF CLOUDY    46  40  79 W6        30.23S                  
LOUISVILLE/LOU FAIR      44  42  93 CALM      30.23S                  
FORT KNOX      FAIR      41  41  98 W3        30.24S                  
$$


SKY/WX - Weather  TMP - Temperature  DP - Dew Point  RH - Relative Humidity
WIND - Wind Direction/Speed PRES - Barometric Pressure
Opt in/Opt out of Taboola Video Ads